Year,Month,Day,Hour,Minute,Value (Times are PST for temperature in C)
2018,07,22,00,00,18.40
2018,07,22,00,01,18.40
2018,07,22,00,02,18.40
2018,07,22,00,03,18.40
2018,07,22,00,04,18.40
2018,07,22,00,05,18.40
2018,07,22,00,06,18.40
2018,07,22,00,07,18.40
2018,07,22,00,08,18.40
2018,07,22,00,09,18.30
2018,07,22,00,10,18.30
2018,07,22,00,11,18.30
2018,07,22,00,12,18.30
2018,07,22,00,13,18.30
2018,07,22,00,14,18.40
2018,07,22,00,15,18.40
2018,07,22,00,16,18.40
2018,07,22,00,17,18.40
2018,07,22,00,18,18.40
2018,07,22,00,19,18.40
2018,07,22,00,20,18.40
2018,07,22,00,21,18.40
2018,07,22,00,22,18.40
2018,07,22,00,23,18.30
2018,07,22,00,24,18.30
2018,07,22,00,25,18.30
2018,07,22,00,26,18.20
2018,07,22,00,27,18.20
2018,07,22,00,28,18.20
2018,07,22,00,29,18.10
2018,07,22,00,30,18.10
2018,07,22,00,31,18.00
2018,07,22,00,32,18.00
2018,07,22,00,33,17.90
2018,07,22,00,34,17.90
2018,07,22,00,35,17.80
2018,07,22,00,36,17.80
2018,07,22,00,37,17.80
2018,07,22,00,38,17.70
2018,07,22,00,39,17.70
2018,07,22,00,40,17.60
2018,07,22,00,41,17.60
2018,07,22,00,42,17.50
2018,07,22,00,43,17.50
2018,07,22,00,44,17.40
2018,07,22,00,45,17.40
2018,07,22,00,46,17.30
2018,07,22,00,47,17.30
2018,07,22,00,48,17.30
2018,07,22,00,49,17.20
2018,07,22,00,50,17.20
2018,07,22,00,51,17.20
2018,07,22,00,52,17.20
2018,07,22,00,53,17.20
2018,07,22,00,54,17.20
2018,07,22,00,55,17.20
2018,07,22,00,56,17.20
2018,07,22,00,57,17.30
2018,07,22,00,58,17.40
2018,07,22,00,59,17.40
2018,07,22,01,00,17.50
2018,07,22,01,01,17.60
2018,07,22,01,02,17.70
2018,07,22,01,03,17.80
2018,07,22,01,04,17.90
2018,07,22,01,05,18.00
2018,07,22,01,06,18.10
2018,07,22,01,07,18.10
2018,07,22,01,08,18.20
2018,07,22,01,09,18.20
2018,07,22,01,10,18.30
2018,07,22,01,11,18.40
2018,07,22,01,12,18.50
2018,07,22,01,13,18.50
2018,07,22,01,14,18.60
2018,07,22,01,15,18.70
2018,07,22,01,16,18.80
2018,07,22,01,17,18.80
2018,07,22,01,18,18.90
2018,07,22,01,19,18.90
2018,07,22,01,20,18.90
2018,07,22,01,21,19.00
2018,07,22,01,22,19.00
2018,07,22,01,23,19.00
2018,07,22,01,24,19.00
2018,07,22,01,25,19.00
2018,07,22,01,26,19.00
2018,07,22,01,27,18.90
2018,07,22,01,28,18.90
2018,07,22,01,29,18.90
2018,07,22,01,30,18.90
2018,07,22,01,31,18.90
2018,07,22,01,32,18.90
2018,07,22,01,33,18.80
2018,07,22,01,34,18.80
2018,07,22,01,35,18.80
2018,07,22,01,36,18.80
2018,07,22,01,37,18.80
2018,07,22,01,38,18.80
2018,07,22,01,39,18.80
2018,07,22,01,40,18.80
2018,07,22,01,41,18.80
2018,07,22,01,42,18.80
2018,07,22,01,43,18.80
2018,07,22,01,44,18.80
2018,07,22,01,45,18.80
2018,07,22,01,46,18.80
2018,07,22,01,47,18.80
2018,07,22,01,48,18.80
2018,07,22,01,49,18.80
2018,07,22,01,50,18.80
2018,07,22,01,51,18.80
2018,07,22,01,52,18.80
2018,07,22,01,53,18.80
2018,07,22,01,54,18.80
2018,07,22,01,55,18.80
2018,07,22,01,56,18.80
2018,07,22,01,57,18.90
2018,07,22,01,58,18.90
2018,07,22,01,59,18.90
2018,07,22,02,00,18.90
2018,07,22,02,01,18.90
2018,07,22,02,02,19.00
2018,07,22,02,03,19.00
2018,07,22,02,04,19.00
2018,07,22,02,05,19.10
2018,07,22,02,06,19.10
2018,07,22,02,07,19.10
2018,07,22,02,08,19.00
2018,07,22,02,09,19.00
2018,07,22,02,10,18.90
2018,07,22,02,11,18.80
2018,07,22,02,12,18.80
2018,07,22,02,13,18.70
2018,07,22,02,14,18.60
2018,07,22,02,15,18.50
2018,07,22,02,16,18.40
2018,07,22,02,17,18.40
2018,07,22,02,18,18.30
2018,07,22,02,19,18.20
2018,07,22,02,20,18.20
2018,07,22,02,21,18.10
2018,07,22,02,22,18.10
2018,07,22,02,23,18.00
2018,07,22,02,24,17.90
2018,07,22,02,25,17.90
2018,07,22,02,26,17.80
2018,07,22,02,27,17.80
2018,07,22,02,28,17.70
2018,07,22,02,29,17.70
2018,07,22,02,30,17.70
2018,07,22,02,31,17.70
2018,07,22,02,32,17.70
2018,07,22,02,33,17.70
2018,07,22,02,34,17.70
2018,07,22,02,35,17.70
2018,07,22,02,36,17.80
2018,07,22,02,37,17.90
2018,07,22,02,38,17.90
2018,07,22,02,39,17.90
2018,07,22,02,40,17.90
2018,07,22,02,41,17.90
2018,07,22,02,42,17.90
2018,07,22,02,43,17.90
2018,07,22,02,44,17.90
2018,07,22,02,45,17.90
2018,07,22,02,46,17.90
2018,07,22,02,47,17.80
2018,07,22,02,48,17.80
2018,07,22,02,49,17.80
2018,07,22,02,50,17.80
2018,07,22,02,51,17.80
2018,07,22,02,52,17.80
2018,07,22,02,53,17.80
2018,07,22,02,54,17.80
2018,07,22,02,55,17.80
2018,07,22,02,56,17.80
2018,07,22,02,57,17.80
2018,07,22,02,58,17.80
2018,07,22,02,59,17.80
2018,07,22,03,00,17.80
2018,07,22,03,01,17.90
2018,07,22,03,02,17.80
2018,07,22,03,03,17.80
2018,07,22,03,04,17.80
2018,07,22,03,05,17.80
2018,07,22,03,06,17.80
2018,07,22,03,07,17.80
2018,07,22,03,08,17.80
2018,07,22,03,09,17.80
2018,07,22,03,10,17.80
2018,07,22,03,11,17.80
2018,07,22,03,12,17.80
2018,07,22,03,13,17.80
2018,07,22,03,14,17.80
2018,07,22,03,15,17.70
2018,07,22,03,16,17.70
2018,07,22,03,17,17.70
2018,07,22,03,18,17.70
2018,07,22,03,19,17.70
2018,07,22,03,20,17.70
2018,07,22,03,21,17.70
2018,07,22,03,22,17.70
2018,07,22,03,23,17.70
2018,07,22,03,24,17.70
2018,07,22,03,25,17.70
2018,07,22,03,26,17.70
2018,07,22,03,27,17.70
2018,07,22,03,28,17.70
2018,07,22,03,29,17.70
2018,07,22,03,30,17.70
2018,07,22,03,31,17.70
2018,07,22,03,32,17.70
2018,07,22,03,33,17.60
2018,07,22,03,34,17.60
2018,07,22,03,35,17.60
2018,07,22,03,36,17.60
2018,07,22,03,37,17.60
2018,07,22,03,38,17.60
2018,07,22,03,39,17.50
2018,07,22,03,40,17.50
2018,07,22,03,41,17.50
2018,07,22,03,42,17.40
2018,07,22,03,43,17.40
2018,07,22,03,44,17.40
2018,07,22,03,45,17.40
2018,07,22,03,46,17.40
2018,07,22,03,47,17.40
2018,07,22,03,48,17.40
2018,07,22,03,49,17.30
2018,07,22,03,50,17.30
2018,07,22,03,51,17.30
2018,07,22,03,52,17.30
2018,07,22,03,53,17.30
2018,07,22,03,54,17.30
2018,07,22,03,55,17.20
2018,07,22,03,56,17.20
2018,07,22,03,57,17.20
2018,07,22,03,58,17.20
2018,07,22,03,59,17.20
2018,07,22,04,00,17.20
2018,07,22,04,01,17.20
2018,07,22,04,02,17.20
2018,07,22,04,03,17.10
2018,07,22,04,04,17.10
2018,07,22,04,05,17.10
2018,07,22,04,06,17.10
2018,07,22,04,07,17.10
2018,07,22,04,08,17.10
2018,07,22,04,09,17.10
2018,07,22,04,10,17.10
2018,07,22,04,11,17.00
2018,07,22,04,12,17.00
2018,07,22,04,13,17.00
2018,07,22,04,14,17.00
2018,07,22,04,15,17.00
2018,07,22,04,16,17.00
2018,07,22,04,17,17.00
2018,07,22,04,18,17.00
2018,07,22,04,19,17.00
2018,07,22,04,20,17.00
2018,07,22,04,21,17.00
2018,07,22,04,22,17.00
2018,07,22,04,23,17.00
2018,07,22,04,24,17.00
2018,07,22,04,25,17.00
2018,07,22,04,26,17.00
2018,07,22,04,27,16.90
2018,07,22,04,28,16.90
2018,07,22,04,29,16.90
2018,07,22,04,30,16.90
2018,07,22,04,31,16.90
2018,07,22,04,32,16.90
2018,07,22,04,33,16.90
2018,07,22,04,34,16.90
2018,07,22,04,35,16.90
2018,07,22,04,36,16.90
2018,07,22,04,37,16.90
2018,07,22,04,38,16.90
2018,07,22,04,39,16.90
2018,07,22,04,40,16.80
2018,07,22,04,41,16.80
2018,07,22,04,42,16.80
2018,07,22,04,43,16.80
2018,07,22,04,44,16.80
2018,07,22,04,45,16.80
2018,07,22,04,46,16.80
2018,07,22,04,47,16.80
2018,07,22,04,48,16.80
2018,07,22,04,49,16.80
2018,07,22,04,50,16.80
2018,07,22,04,51,16.70
2018,07,22,04,52,16.70
2018,07,22,04,53,16.70
2018,07,22,04,54,16.70
2018,07,22,04,55,16.70
2018,07,22,04,56,16.70
2018,07,22,04,57,16.70
2018,07,22,04,58,16.70
2018,07,22,04,59,16.70
2018,07,22,05,00,16.70
2018,07,22,05,01,16.70
2018,07,22,05,02,16.70
2018,07,22,05,03,16.70
2018,07,22,05,04,16.70
2018,07,22,05,05,16.70
2018,07,22,05,06,16.60
2018,07,22,05,07,16.60
2018,07,22,05,08,16.60
2018,07,22,05,09,16.60
2018,07,22,05,10,16.60
2018,07,22,05,11,16.50
2018,07,22,05,12,16.50
2018,07,22,05,13,16.50
2018,07,22,05,14,16.40
2018,07,22,05,15,16.40
2018,07,22,05,16,16.40
2018,07,22,05,17,16.40
2018,07,22,05,18,16.40
2018,07,22,05,19,16.40
2018,07,22,05,20,16.40
2018,07,22,05,21,16.40
2018,07,22,05,22,16.40
2018,07,22,05,23,16.40
2018,07,22,05,24,16.40
2018,07,22,05,25,16.40
2018,07,22,05,26,16.40
2018,07,22,05,27,16.40
2018,07,22,05,28,16.40
2018,07,22,05,29,16.30
2018,07,22,05,30,16.30
2018,07,22,05,31,16.30
2018,07,22,05,32,16.20
2018,07,22,05,33,16.20
2018,07,22,05,34,16.20
2018,07,22,05,35,16.20
2018,07,22,05,36,16.20
2018,07,22,05,37,16.20
2018,07,22,05,38,16.20
2018,07,22,05,39,16.20
2018,07,22,05,40,16.20
2018,07,22,05,41,16.20
2018,07,22,05,42,16.20
2018,07,22,05,43,16.20
2018,07,22,05,44,16.20
2018,07,22,05,45,16.20
2018,07,22,05,46,16.20
2018,07,22,05,47,16.20
2018,07,22,05,48,16.20
2018,07,22,05,49,16.30
2018,07,22,05,50,16.30
2018,07,22,05,51,16.30
2018,07,22,05,52,16.30
2018,07,22,05,53,16.30
2018,07,22,05,54,16.30
2018,07,22,05,55,16.30
2018,07,22,05,56,16.40
2018,07,22,05,57,16.40
2018,07,22,05,58,16.40
2018,07,22,05,59,16.40
2018,07,22,06,00,16.40
2018,07,22,06,01,16.40
2018,07,22,06,02,16.40
2018,07,22,06,03,16.30
2018,07,22,06,04,16.30
2018,07,22,06,05,16.40
2018,07,22,06,06,16.40
2018,07,22,06,07,16.40
2018,07,22,06,08,16.40
2018,07,22,06,09,16.40
2018,07,22,06,10,16.40
2018,07,22,06,11,16.50
2018,07,22,06,12,16.50
2018,07,22,06,13,16.60
2018,07,22,06,14,16.60
2018,07,22,06,15,16.60
2018,07,22,06,16,16.70
2018,07,22,06,17,16.70
2018,07,22,06,18,16.70
2018,07,22,06,19,16.70
2018,07,22,06,20,16.70
2018,07,22,06,21,16.70
2018,07,22,06,22,16.80
2018,07,22,06,23,16.80
2018,07,22,06,24,16.80
2018,07,22,06,25,16.80
2018,07,22,06,26,16.80
2018,07,22,06,27,16.80
2018,07,22,06,28,16.80
2018,07,22,06,29,16.80
2018,07,22,06,30,16.80
2018,07,22,06,31,16.90
2018,07,22,06,32,16.90
2018,07,22,06,33,16.90
2018,07,22,06,34,16.90
2018,07,22,06,35,16.90
2018,07,22,06,36,16.90
2018,07,22,06,37,16.90
2018,07,22,06,38,16.90
2018,07,22,06,39,16.90
2018,07,22,06,40,17.00
2018,07,22,06,41,17.00
2018,07,22,06,42,17.00
2018,07,22,06,43,17.00
2018,07,22,06,44,17.10
2018,07,22,06,45,17.00
2018,07,22,06,46,17.00
2018,07,22,06,47,17.00
2018,07,22,06,48,17.00
2018,07,22,06,49,17.00
2018,07,22,06,50,17.00
2018,07,22,06,51,17.10
2018,07,22,06,52,17.10
2018,07,22,06,53,17.10
2018,07,22,06,54,17.10
2018,07,22,06,55,17.10
2018,07,22,06,56,17.10
2018,07,22,06,57,17.10
2018,07,22,06,58,17.10
2018,07,22,06,59,17.10
2018,07,22,07,00,17.10
2018,07,22,07,01,17.10
2018,07,22,07,02,17.20
2018,07,22,07,03,17.20
2018,07,22,07,04,17.20
2018,07,22,07,05,17.20
2018,07,22,07,06,17.20
2018,07,22,07,07,17.30
2018,07,22,07,08,17.30
2018,07,22,07,09,17.30
2018,07,22,07,10,17.30
2018,07,22,07,11,17.30
2018,07,22,07,12,17.30
2018,07,22,07,13,17.30
2018,07,22,07,14,17.30
2018,07,22,07,15,17.30
2018,07,22,07,16,17.30
2018,07,22,07,17,17.30
2018,07,22,07,18,17.30
2018,07,22,07,19,17.30
2018,07,22,07,20,17.40
2018,07,22,07,21,17.40
2018,07,22,07,22,17.40
2018,07,22,07,23,17.50
2018,07,22,07,24,17.50
2018,07,22,07,25,17.50
2018,07,22,07,26,17.60
2018,07,22,07,27,17.60
2018,07,22,07,28,17.50
2018,07,22,07,29,17.50
2018,07,22,07,30,17.50
2018,07,22,07,31,17.50
2018,07,22,07,32,17.50
2018,07,22,07,33,17.50
2018,07,22,07,34,17.50
2018,07,22,07,35,17.50
2018,07,22,07,36,17.50
2018,07,22,07,37,17.50
2018,07,22,07,38,17.50
2018,07,22,07,39,17.50
2018,07,22,07,40,17.60
2018,07,22,07,41,17.60
2018,07,22,07,42,17.60
2018,07,22,07,43,17.60
2018,07,22,07,44,17.60
2018,07,22,07,45,17.70
2018,07,22,07,46,17.70
2018,07,22,07,47,17.70
2018,07,22,07,48,17.70
2018,07,22,07,49,17.70
2018,07,22,07,50,17.80
2018,07,22,07,51,17.80
2018,07,22,07,52,17.80
2018,07,22,07,53,17.80
2018,07,22,07,54,17.70
2018,07,22,07,55,17.70
2018,07,22,07,56,17.70
2018,07,22,07,57,17.60
2018,07,22,07,58,17.60
2018,07,22,07,59,17.60
2018,07,22,08,00,17.60
2018,07,22,08,01,17.60
2018,07,22,08,02,17.60
2018,07,22,08,03,17.60
2018,07,22,08,04,17.60
2018,07,22,08,05,17.60
2018,07,22,08,06,17.60
2018,07,22,08,07,17.60
2018,07,22,08,08,17.60
2018,07,22,08,09,17.60
2018,07,22,08,10,17.60
2018,07,22,08,11,17.60
2018,07,22,08,12,17.70
2018,07,22,08,13,17.70
2018,07,22,08,14,17.70
2018,07,22,08,15,17.70
2018,07,22,08,16,17.70
2018,07,22,08,17,17.70
2018,07,22,08,18,17.70
2018,07,22,08,19,17.70
2018,07,22,08,20,17.70
2018,07,22,08,21,17.80
2018,07,22,08,22,17.80
2018,07,22,08,23,17.70
2018,07,22,08,24,17.70
2018,07,22,08,25,17.70
2018,07,22,08,26,17.70
2018,07,22,08,27,17.70
2018,07,22,08,28,17.60
2018,07,22,08,29,17.70
2018,07,22,08,30,17.70
2018,07,22,08,31,17.70
2018,07,22,08,32,17.70
2018,07,22,08,33,17.70
2018,07,22,08,34,17.70
2018,07,22,08,35,17.70
2018,07,22,08,36,17.70
2018,07,22,08,37,17.70
2018,07,22,08,38,17.70
2018,07,22,08,39,17.70
2018,07,22,08,40,17.70
2018,07,22,08,41,17.70
2018,07,22,08,42,17.70
2018,07,22,08,43,17.70
2018,07,22,08,44,17.80
2018,07,22,08,45,17.80
2018,07,22,08,46,17.80
2018,07,22,08,47,17.80
2018,07,22,08,48,17.80
2018,07,22,08,49,17.80
2018,07,22,08,50,17.70
2018,07,22,08,51,17.70
2018,07,22,08,52,17.80
2018,07,22,08,53,17.80
2018,07,22,08,54,17.80
2018,07,22,08,55,17.80
2018,07,22,08,56,17.80
2018,07,22,08,57,17.80
2018,07,22,08,58,17.70
2018,07,22,08,59,17.70
2018,07,22,09,00,17.70
2018,07,22,09,01,17.70
2018,07,22,09,02,17.70
2018,07,22,09,03,17.70
2018,07,22,09,04,17.60
2018,07,22,09,05,17.60
2018,07,22,09,06,17.60
2018,07,22,09,07,17.60
2018,07,22,09,08,17.60
2018,07,22,09,09,17.70
2018,07,22,09,10,17.70
2018,07,22,09,11,17.70
2018,07,22,09,12,17.70
2018,07,22,09,13,17.70
2018,07,22,09,14,17.70
2018,07,22,09,15,17.80
2018,07,22,09,16,17.70
2018,07,22,09,17,17.70
2018,07,22,09,18,17.60
2018,07,22,09,19,17.60
2018,07,22,09,20,17.60
2018,07,22,09,21,17.60
2018,07,22,09,22,17.60
2018,07,22,09,23,17.50
2018,07,22,09,24,17.50
2018,07,22,09,25,17.40
2018,07,22,09,26,17.50
2018,07,22,09,27,17.50
2018,07,22,09,28,17.60
2018,07,22,09,29,17.70
2018,07,22,09,30,17.70
2018,07,22,09,31,17.70
2018,07,22,09,32,17.70
2018,07,22,09,33,17.70
2018,07,22,09,34,17.70
2018,07,22,09,35,17.70
2018,07,22,09,36,17.70
2018,07,22,09,37,17.70
2018,07,22,09,38,17.70
2018,07,22,09,39,17.70
2018,07,22,09,40,17.70
2018,07,22,09,41,17.60
2018,07,22,09,42,17.60
2018,07,22,09,43,17.70
2018,07,22,09,44,17.70
2018,07,22,09,45,17.80
2018,07,22,09,46,17.80
2018,07,22,09,47,17.80
2018,07,22,09,48,17.80
2018,07,22,09,49,17.80
2018,07,22,09,50,17.90
2018,07,22,09,51,17.90
2018,07,22,09,52,17.90
2018,07,22,09,53,17.90
2018,07,22,09,54,17.90
2018,07,22,09,55,17.90
2018,07,22,09,56,17.90
2018,07,22,09,57,17.90
2018,07,22,09,58,17.80
2018,07,22,09,59,17.80
2018,07,22,10,00,17.80
2018,07,22,10,01,17.70
2018,07,22,10,02,17.70
2018,07,22,10,03,17.80
2018,07,22,10,04,17.80
2018,07,22,10,05,17.80
2018,07,22,10,06,17.80
2018,07,22,10,07,17.80
2018,07,22,10,08,17.90
2018,07,22,10,09,17.90
2018,07,22,10,10,18.00
2018,07,22,10,11,18.10
2018,07,22,10,12,18.10
2018,07,22,10,13,18.10
2018,07,22,10,14,18.20
2018,07,22,10,15,18.20
2018,07,22,10,16,18.20
2018,07,22,10,17,18.30
2018,07,22,10,18,18.40
2018,07,22,10,19,18.50
2018,07,22,10,20,18.60
2018,07,22,10,21,18.60
2018,07,22,10,22,18.60
2018,07,22,10,23,18.50
2018,07,22,10,24,18.50
2018,07,22,10,25,18.50
2018,07,22,10,26,18.40
2018,07,22,10,27,18.50
2018,07,22,10,28,18.50
2018,07,22,10,29,18.50
2018,07,22,10,30,18.50
2018,07,22,10,31,18.50
2018,07,22,10,32,18.50
2018,07,22,10,33,18.60
2018,07,22,10,34,18.60
2018,07,22,10,35,18.60
2018,07,22,10,36,18.60
2018,07,22,10,37,18.70
2018,07,22,10,38,18.70
2018,07,22,10,39,18.70
2018,07,22,10,40,18.80
2018,07,22,10,41,18.90
2018,07,22,10,42,18.90
2018,07,22,10,43,18.90
2018,07,22,10,44,18.90
2018,07,22,10,45,18.90
2018,07,22,10,46,18.90
2018,07,22,10,47,18.90
2018,07,22,10,48,18.90
2018,07,22,10,49,18.90
2018,07,22,10,50,18.90
2018,07,22,10,51,18.90
2018,07,22,10,52,18.90
2018,07,22,10,53,18.90
2018,07,22,10,54,18.90
2018,07,22,10,55,18.80
2018,07,22,10,56,18.80
2018,07,22,10,57,18.80
2018,07,22,10,58,18.80
2018,07,22,10,59,18.80
2018,07,22,11,00,18.90
2018,07,22,11,01,19.00
2018,07,22,11,02,19.00
2018,07,22,11,03,19.10
2018,07,22,11,04,19.10
2018,07,22,11,05,19.10
2018,07,22,11,06,19.10
2018,07,22,11,07,19.20
2018,07,22,11,08,19.30
2018,07,22,11,09,19.30
2018,07,22,11,10,19.30
2018,07,22,11,11,19.40
2018,07,22,11,12,19.40
2018,07,22,11,13,19.40
2018,07,22,11,14,19.40
2018,07,22,11,15,19.40
2018,07,22,11,16,19.50
2018,07,22,11,17,19.50
2018,07,22,11,18,19.50
2018,07,22,11,19,19.40
2018,07,22,11,20,19.40
2018,07,22,11,21,19.40
2018,07,22,11,22,19.30
2018,07,22,11,23,19.20
2018,07,22,11,24,19.20
2018,07,22,11,25,19.10
2018,07,22,11,26,19.10
2018,07,22,11,27,19.20
2018,07,22,11,28,19.20
2018,07,22,11,29,19.20
2018,07,22,11,30,19.20
2018,07,22,11,31,19.20
2018,07,22,11,32,19.30
2018,07,22,11,33,19.40
2018,07,22,11,34,19.40
2018,07,22,11,35,19.40
2018,07,22,11,36,19.40
2018,07,22,11,37,19.40
2018,07,22,11,38,19.40
2018,07,22,11,39,19.40
2018,07,22,11,40,19.40
2018,07,22,11,41,19.40
2018,07,22,11,42,19.40
2018,07,22,11,43,19.40
2018,07,22,11,44,19.40
2018,07,22,11,45,19.40
2018,07,22,11,46,19.40
2018,07,22,11,47,19.40
2018,07,22,11,48,19.40
2018,07,22,11,49,19.40
2018,07,22,11,50,19.40
2018,07,22,11,51,19.50
2018,07,22,11,52,19.50
2018,07,22,11,53,19.60
2018,07,22,11,54,19.60
2018,07,22,11,55,19.70
2018,07,22,11,56,19.80
2018,07,22,11,57,19.90
2018,07,22,11,58,19.90
2018,07,22,11,59,20.00
2018,07,22,12,00,20.00
2018,07,22,12,01,20.00
2018,07,22,12,02,20.00
2018,07,22,12,03,20.00
2018,07,22,12,04,20.00
2018,07,22,12,05,20.00
2018,07,22,12,06,20.10
2018,07,22,12,07,20.10
2018,07,22,12,08,20.10
2018,07,22,12,09,20.20
2018,07,22,12,10,20.20
2018,07,22,12,11,20.20
2018,07,22,12,12,20.20
2018,07,22,12,13,20.20
2018,07,22,12,14,20.20
2018,07,22,12,15,20.20
2018,07,22,12,16,20.20
2018,07,22,12,17,20.10
2018,07,22,12,18,20.20
2018,07,22,12,19,20.20
2018,07,22,12,20,20.20
2018,07,22,12,21,20.30
2018,07,22,12,22,20.40
2018,07,22,12,23,20.40
2018,07,22,12,24,20.30
2018,07,22,12,25,20.40
2018,07,22,12,26,20.40
2018,07,22,12,27,20.40
2018,07,22,12,28,20.40
2018,07,22,12,29,20.40
2018,07,22,12,30,20.30
2018,07,22,12,31,20.30
2018,07,22,12,32,20.20
2018,07,22,12,33,20.30
2018,07,22,12,34,20.30
2018,07,22,12,35,20.20
2018,07,22,12,36,20.20
2018,07,22,12,37,20.20
2018,07,22,12,38,20.30
2018,07,22,12,39,20.40
2018,07,22,12,40,20.50
2018,07,22,12,41,20.60
2018,07,22,12,42,20.60
2018,07,22,12,43,20.70
2018,07,22,12,44,20.70
2018,07,22,12,45,20.60
2018,07,22,12,46,20.60
2018,07,22,12,47,20.60
2018,07,22,12,48,20.60
2018,07,22,12,49,20.60
2018,07,22,12,50,20.70
2018,07,22,12,51,20.70
2018,07,22,12,52,20.70
2018,07,22,12,53,20.60
2018,07,22,12,54,20.50
2018,07,22,12,55,20.40
2018,07,22,12,56,20.40
2018,07,22,12,57,20.40
2018,07,22,12,58,20.40
2018,07,22,12,59,20.50
2018,07,22,13,00,20.60
2018,07,22,13,01,20.70
2018,07,22,13,02,20.80
2018,07,22,13,03,20.80
2018,07,22,13,04,20.70
2018,07,22,13,05,20.80
2018,07,22,13,06,20.80
2018,07,22,13,07,20.80
2018,07,22,13,08,20.70
2018,07,22,13,09,20.70
2018,07,22,13,10,20.70
2018,07,22,13,11,20.70
2018,07,22,13,12,20.70
2018,07,22,13,13,20.80
2018,07,22,13,14,20.80
2018,07,22,13,15,20.80
2018,07,22,13,16,20.80
2018,07,22,13,17,20.70
2018,07,22,13,18,20.70
2018,07,22,13,19,20.60
2018,07,22,13,20,20.70
2018,07,22,13,21,20.70
2018,07,22,13,22,20.70
2018,07,22,13,23,20.80
2018,07,22,13,24,20.80
2018,07,22,13,25,20.90
2018,07,22,13,26,21.00
2018,07,22,13,27,21.10
2018,07,22,13,28,21.20
2018,07,22,13,29,21.20
2018,07,22,13,30,21.40
2018,07,22,13,31,21.40
2018,07,22,13,32,21.50
2018,07,22,13,33,21.60
2018,07,22,13,34,21.60
2018,07,22,13,35,21.60
2018,07,22,13,36,21.70
2018,07,22,13,37,21.80
2018,07,22,13,38,21.80
2018,07,22,13,39,21.80
2018,07,22,13,40,21.80
2018,07,22,13,41,21.80
2018,07,22,13,42,21.80
2018,07,22,13,43,21.90
2018,07,22,13,44,21.90
2018,07,22,13,45,21.90
2018,07,22,13,46,22.00
2018,07,22,13,47,22.10
2018,07,22,13,48,22.10
2018,07,22,13,49,22.10
2018,07,22,13,50,22.00
2018,07,22,13,51,22.00
2018,07,22,13,52,21.90
2018,07,22,13,53,21.90
2018,07,22,13,54,21.80
2018,07,22,13,55,21.80
2018,07,22,13,56,21.80
2018,07,22,13,57,21.80
2018,07,22,13,58,21.90
2018,07,22,13,59,21.90
2018,07,22,14,00,22.00
2018,07,22,14,01,22.00
2018,07,22,14,02,22.00
2018,07,22,14,03,22.10
2018,07,22,14,04,22.20
2018,07,22,14,05,22.20
2018,07,22,14,06,22.20
2018,07,22,14,07,22.30
2018,07,22,14,08,22.30
2018,07,22,14,09,22.40
2018,07,22,14,10,22.50
2018,07,22,14,11,22.60
2018,07,22,14,12,22.70
2018,07,22,14,13,22.70
2018,07,22,14,14,22.80
2018,07,22,14,15,22.80
2018,07,22,14,16,22.70
2018,07,22,14,17,22.70
2018,07,22,14,18,22.80
2018,07,22,14,19,22.80
2018,07,22,14,20,22.90
2018,07,22,14,21,22.90
2018,07,22,14,22,23.00
2018,07,22,14,23,23.00
2018,07,22,14,24,23.10
2018,07,22,14,25,23.10
2018,07,22,14,26,23.20
2018,07,22,14,27,23.30
2018,07,22,14,28,23.30
2018,07,22,14,29,23.20
2018,07,22,14,30,23.10
2018,07,22,14,31,23.10
2018,07,22,14,32,23.00
2018,07,22,14,33,23.00
2018,07,22,14,34,23.00
2018,07,22,14,35,23.00
2018,07,22,14,36,23.00
2018,07,22,14,37,23.00
2018,07,22,14,38,22.90
2018,07,22,14,39,23.00
2018,07,22,14,40,23.10
2018,07,22,14,41,23.20
2018,07,22,14,42,23.30
2018,07,22,14,43,23.30
2018,07,22,14,44,23.40
2018,07,22,14,45,23.40
2018,07,22,14,46,23.40
2018,07,22,14,47,23.40
2018,07,22,14,48,23.40
2018,07,22,14,49,23.30
2018,07,22,14,50,23.30
2018,07,22,14,51,23.40
2018,07,22,14,52,23.40
2018,07,22,14,53,23.40
2018,07,22,14,54,23.30
2018,07,22,14,55,23.30
2018,07,22,14,56,23.30
2018,07,22,14,57,23.30
2018,07,22,14,58,23.30
2018,07,22,14,59,23.20
2018,07,22,15,00,23.20
2018,07,22,15,01,23.20
2018,07,22,15,02,23.20
2018,07,22,15,03,23.30
2018,07,22,15,04,23.30
2018,07,22,15,05,23.40
2018,07,22,15,06,23.40
2018,07,22,15,07,23.40
2018,07,22,15,08,23.50
2018,07,22,15,09,23.70
2018,07,22,15,10,23.80
2018,07,22,15,11,23.80
2018,07,22,15,12,23.80
2018,07,22,15,13,23.80
2018,07,22,15,14,23.80
2018,07,22,15,15,23.80
2018,07,22,15,16,23.80
2018,07,22,15,17,23.80
2018,07,22,15,18,23.90
2018,07,22,15,19,23.90
2018,07,22,15,20,23.90
2018,07,22,15,21,23.90
2018,07,22,15,22,24.00
2018,07,22,15,23,24.00
2018,07,22,15,24,24.00
2018,07,22,15,25,24.00
2018,07,22,15,26,23.90
2018,07,22,15,27,23.90
2018,07,22,15,28,24.00
2018,07,22,15,29,23.90
2018,07,22,15,30,23.90
2018,07,22,15,31,23.90
2018,07,22,15,32,23.80
2018,07,22,15,33,23.80
2018,07,22,15,34,23.80
2018,07,22,15,35,23.90
2018,07,22,15,36,23.90
2018,07,22,15,37,23.80
2018,07,22,15,38,23.80
2018,07,22,15,39,23.80
2018,07,22,15,40,23.80
2018,07,22,15,41,23.90
2018,07,22,15,42,23.90
2018,07,22,15,43,24.00
2018,07,22,15,44,24.10
2018,07,22,15,45,24.20
2018,07,22,15,46,24.40
2018,07,22,15,47,24.50
2018,07,22,15,48,24.60
2018,07,22,15,49,24.70
2018,07,22,15,50,24.70
2018,07,22,15,51,24.70
2018,07,22,15,52,24.80
2018,07,22,15,53,24.90
2018,07,22,15,54,25.00
2018,07,22,15,55,25.10
2018,07,22,15,56,25.10
2018,07,22,15,57,25.10
2018,07,22,15,58,25.00
2018,07,22,15,59,25.00
2018,07,22,16,00,25.10
2018,07,22,16,01,25.10
2018,07,22,16,02,25.20
2018,07,22,16,03,25.20
2018,07,22,16,04,25.10
2018,07,22,16,05,25.10
2018,07,22,16,06,25.10
2018,07,22,16,07,25.10
2018,07,22,16,08,25.10
2018,07,22,16,09,25.00
2018,07,22,16,10,25.00
2018,07,22,16,11,24.90
2018,07,22,16,12,24.90
2018,07,22,16,13,24.90
2018,07,22,16,14,24.90
2018,07,22,16,15,24.90
2018,07,22,16,16,24.90
2018,07,22,16,17,25.00
2018,07,22,16,18,25.00
2018,07,22,16,19,25.00
2018,07,22,16,20,25.00
2018,07,22,16,21,25.00
2018,07,22,16,22,25.10
2018,07,22,16,23,25.20
2018,07,22,16,24,25.30
2018,07,22,16,25,25.30
2018,07,22,16,26,25.30
2018,07,22,16,27,25.30
2018,07,22,16,28,25.30
2018,07,22,16,29,25.30
2018,07,22,16,30,25.20
2018,07,22,16,31,25.10
2018,07,22,16,32,25.10
2018,07,22,16,33,25.10
2018,07,22,16,34,25.10
2018,07,22,16,35,25.20
2018,07,22,16,36,25.20
2018,07,22,16,37,25.20
2018,07,22,16,38,25.20
2018,07,22,16,39,25.20
2018,07,22,16,40,25.20
2018,07,22,16,41,25.20
2018,07,22,16,42,25.10
2018,07,22,16,43,25.10
2018,07,22,16,44,25.00
2018,07,22,16,45,24.90
2018,07,22,16,46,25.00
2018,07,22,16,47,25.00
2018,07,22,16,48,25.00
2018,07,22,16,49,25.10
2018,07,22,16,50,25.20
2018,07,22,16,51,25.30
2018,07,22,16,52,25.40
2018,07,22,16,53,25.40
2018,07,22,16,54,25.50
2018,07,22,16,55,25.60
2018,07,22,16,56,25.60
2018,07,22,16,57,25.50
2018,07,22,16,58,25.50
2018,07,22,16,59,25.40
2018,07,22,17,00,25.40
2018,07,22,17,01,25.40
2018,07,22,17,02,25.30
2018,07,22,17,03,25.30
2018,07,22,17,04,25.30
2018,07,22,17,05,25.20
2018,07,22,17,06,25.10
2018,07,22,17,07,25.10
2018,07,22,17,08,25.10
2018,07,22,17,09,25.10
2018,07,22,17,10,25.20
2018,07,22,17,11,25.20
2018,07,22,17,12,25.20
2018,07,22,17,13,25.20
2018,07,22,17,14,25.10
2018,07,22,17,15,25.10
2018,07,22,17,16,25.10
2018,07,22,17,17,25.00
2018,07,22,17,18,25.00
2018,07,22,17,19,25.10